#timestamp,LO_Frequency,Hit,StdDev 
1582956055.5,286047005.2,P
1582956075.3,286047004.5,P
1582956095.2,286047004.5,P
1582956115.0,286047006.3,Y
1582956115.9,286047006.3,P
1582956135.7,286047001.7,N
1582956155.6,286047004.3,N
1582956175.4,286047001.9,N
1582956195.3,286047002.4,N
1582956215.1,286046999.7,N
1582956216.0,286046999.7,N
1582956235.8,286046999.8,N
1582956255.7,286047000.1,N
1582956275.5,286047000.4,N
1582956295.3,286047000.5,N
1582956315.2,286047000.6,N
1582956335.0,286047000.5,N
1582956335.9,286047000.5,N
1582956355.8,286047000.9,N
1582956375.6,286047001.0,N
1582956395.4,286047001.2,N
1582956415.3,286046998.7,N
1582956435.1,286046998.4,N
1582956455.9,286046998.7,N
1582956475.7,286047000.0,N
1582956495.5,286046999.7,N
1582956515.4,286046999.8,N
1582956535.2,286047000.9,N
1582956555.0,286047000.1,N
1582956555.9,286047000.1,N
1582956575.8,286046999.8,N
1582956595.6,286047002.8,N
1582956615.5,286047000.0,N
1582956635.3,286047002.8,N
1582956655.1,286047002.1,N
1582956675.9,286047000.5,N
1582956695.7,286046998.2,N
1582956715.6,286046999.9,N
1582956735.4,286047000.4,N
1582956755.2,286047000.1,N
1582956775.1,286047000.4,N
1582956776.0,286047000.4,N
1582956795.8,286046998.1,N
1582956815.7,286047000.7,N
1582956835.5,286046999.5,N
1582956855.3,286046997.2,N
1582956875.2,286046994.9,Y
1582956895.0,286046997.1,P
1582956895.9,286046997.1,N
1582956915.7,286046996.7,N
1582956935.6,286046997.4,N
1582956955.4,286046996.0,Y
1582956975.3,286046996.1,P
1582956995.1,286046995.7,P
1582957015.8,286046995.3,P
1582957035.7,286046997.9,N
1582957055.5,286046997.4,N
1582957075.4,286046997.7,N
1582957095.2,286046997.8,N
1582957115.0,286046997.2,N
1582957115.9,286046997.2,Y
1582957135.8,286047002.6,P
1582957155.6,286047003.3,N
1582957175.4,286047003.0,N
1582957195.3,286047005.9,N
1582957215.1,286047005.8,N
1582957235.9,286047005.8,N
1582957255.7,286047005.6,N
1582957275.5,286047003.3,N
1582957295.4,286047005.6,N
1582957315.2,286047005.6,N
1582957335.1,286047005.5,N
1582957336.0,286047005.5,N
1582957355.8,286047006.0,N
1582957375.6,286047003.6,N
1582957395.5,286047005.9,N
1582957415.3,286047001.3,N
1582957435.1,286047002.3,N
1582957455.9,286046999.8,N
1582957475.7,286046999.9,N
1582957495.6,286047000.0,N
1582957515.4,286047000.9,N
1582957535.2,286046998.2,N
1582957555.1,286046999.4,N
1582957556.0,286046999.4,N
1582957575.8,286046999.4,N
1582957595.6,286046996.5,N
1582957615.5,286046997.2,N
1582957635.3,286046997.4,N
1582957655.2,286046995.3,N
1582957675.9,286046999.3,N
1582957695.7,286046999.0,N
1582957715.6,286046999.3,N
1582957735.4,286047001.1,N
1582957755.3,286047001.1,N
1582957775.1,286047001.2,N
1582957776.0,286047001.2,N
1582957795.8,286047000.8,N
1582957815.7,286047000.8,N
1582957835.5,286047000.7,N
1582957855.3,286047000.7,N
1582957875.2,286046998.5,N
1582957895.0,286046998.4,N
1582957895.9,286046998.4,N
1582957915.8,286047000.9,N
1582957935.6,286047000.0,N
1582957955.4,286047002.2,N
1582957975.3,286047002.6,N
1582957995.1,286047002.1,N
1582958015.9,286047002.8,N
1582958035.7,286047002.5,N
1582958055.5,286047002.2,N
1582958075.4,286047002.4,N
1582958095.2,286047000.5,N
1582958115.0,286046999.8,N
1582958115.9,286046999.8,N
1582958135.8,286047002.2,N
1582958155.6,286047001.5,N
1582958175.5,286047002.1,N
1582958195.3,286047004.2,N
1582958215.1,286047003.7,N
1582958235.9,286047001.3,N
1582958255.7,286047004.3,N
1582958275.5,286047001.6,N
1582958295.4,286047003.9,N
1582958315.2,286047003.6,N
1582958335.1,286047005.9,Y
1582958336.0,286047005.9,P
1582958355.8,286047005.8,N
1582958375.6,286047005.3,N
1582958395.5,286047006.5,Y
1582958415.3,286047004.2,P
1582958435.2,286047004.3,P
1582958455.9,286047002.2,P
1582958475.7,286047003.7,Y
1582958495.6,286047000.7,P
1582958515.4,286047000.3,N
1582958535.2,286046998.3,N
1582958555.1,286046999.2,N
1582958556.0,286046999.2,N
1582958575.8,286046996.5,N
1582958595.7,286046997.6,N
1582958615.5,286046997.5,N
1582958635.3,286046997.8,N
1582958655.2,286046996.1,N
1582958675.0,286046994.0,N
1582958675.9,286046994.0,N
1582958695.8,286046992.1,Y
1582958715.6,286046993.9,P
1582958735.4,286046994.8,N
1582958755